CZ-6A DEB

Satellite information

Favourite Embed

Satellite Type and Status

DEBRISIN ORBIT

Key statistics

Satellite CZ-6A DEB at a glance.

Uptime

441

Days in orbit

Revolutions

≈ 14.2

Per day

Orbit

LEO

Low Earth Orbit

Inclination

89.0

Latest

Satellite identification and parameters

Extended collection of information and parameters for CZ-6A DEB.

Object identification

Identified? True

Debris? True

Object name: CZ-6A DEB

International designator: 2024-140BG

Object number (NORAD): 60655

Object ID (CCSDS): 60655

Country: PEOPLES REPUBLIC OF CHINA (PRC)

Current information (Y/N): Y

RCS size: MEDIUM

Orbital parameters

Period: 101.368 minutes

Inclination: 88.999 deg

SMA: 7201.556 km

Apoapsis: 850.832 km

Periapsis: 796.011 km

RAAN: 301.7809 deg

Eccentricy: 0.00380616

Argument of periapsis: 220.0817 deg

Mean anomaly: 139.7564 deg

Mean motion: 14.20571866 rev/day

Mean motion (dot): 0.0000039 rev/day2

B* drag term: 0.00017385082 1/REarth

Two-line elements (TLE)

Creation date: Oct. 21, 2025, 3:26 a.m.

Reference frame: TEME

Reference center: EARTH

Epoch: Oct. 20, 2025, 7:47 p.m. UTC

TLE line 0: 0 CZ-6A DEB

TLE line 1: 1 60655U 24140BG 25293.82466077 .00000390 00000-0 17385-3 0 9993

TLE line 2: 2 60655 88.9990 301.7809 0038062 220.0817 139.7564 14.20571866 62209

Live tracking on map

Real-time ground track for satellite CZ-6A DEB.

In-orbit conjunctions

A list of the most updated potential collisions computed for object CZ-6A DEB.

Target Orbit TCA Probability of collision Miss distance Type
FENGYUN 1C DEB SSO 2025-02-06 12:50:55 0.004115716 47.0 (m) DEBRIS
CZ-6A DEB LEO 2024-11-12 22:35:13 0.002247846 153.0 (m) DEBRIS
PSLV DEB SSO 2024-11-06 00:51:57 0.0002013023 784.0 (m) DEBRIS
FENGYUN 1C DEB SSO 2024-10-29 21:06:54 0.0002801139 744.0 (m) DEBRIS
FENGYUN 1C DEB SSO 2024-09-28 04:18:35 0.0002116385 802.0 (m) DEBRIS

Associated space launch

18 Low Earth Orbit communication satellites with Ku, Q and V band payloads for the G60 constellation operated by Shanghai Spacecom Satellite Technology (SSST) with funding backed by the Shanghai local government. Initial constellation will consist of 1296 satellites by 2027 with long term plans to expand it to 12000 satellites.

CZ-6A DEB was lifted into orbit during the mission ‘Long March 6A | G60 Polar Group 01’, on board a Long March 6A space rocket.

The launch took place on Aug. 6, 2024, 6:42 a.m. from Launch Complex 9A.

For more information about the launch, click the button.

Launch to space Long March 6A | G60 Polar Group 01
Long March 6A | G60 Polar Group 01

Agency: N/A

Status: Launch Successful

Launch date: Aug. 6, 2024, 6:42 a.m. UTC

Rocket: Long March 6A

Launch pad: Launch Complex 9A

Location: Taiyuan Satellite Launch Center, People's Republic of China

...

Latest news about this satellite

News about space launch
Brightness of first Chinese broadband constellation satellites alarms astronomers

The first satellites of a Chinese broadband constellation are significantly brighter than those of Western systems, posing a new challenge for astronomers.

News about space launch
Chinese rocket stage breaks up into cloud of more than 700 pieces of space debris

HELSINKI — A Chinese Long March 6A rocket’s upper stage has fragmented into a cloud of over 700 pieces of space debris, adding to concerns about long-term orbital safety. China […]

News about space launch
China's Thousand Sails Megaconstellation Kicks Off with Dangerous Debris Field

China's Thousand Sails Megaconstellation Kicks Off with Dangerous Debris Field


Newsletter sign-up

Weekly statistics, charts and insights to help you stay on top of the space industry.